TimeMDT,TemperatureF,Dew PointF,Humidity,Sea Level PressureIn,VisibilityMPH,Wind Direction,Wind SpeedMPH,Gust SpeedMPH,PrecipitationIn,Events,Conditions,WindDirDegrees,DateUTC
12:53 AM,62.1,27.0,26,30.12,7.0,WSW,6.9,-,N/A,,Clear,250,2012-09-20 06:53:00
1:53 AM,59.0,28.0,31,30.13,7.0,Calm,Calm,-,N/A,,Clear,0,2012-09-20 07:53:00
2:53 AM,60.1,27.0,28,30.12,5.0,SW,6.9,-,N/A,,Haze,230,2012-09-20 08:53:00
3:53 AM,52.0,30.9,45,30.14,7.0,SW,3.5,-,N/A,,Clear,230,2012-09-20 09:53:00
4:53 AM,48.9,30.0,48,30.16,7.0,Calm,Calm,-,N/A,,Clear,0,2012-09-20 10:53:00
5:53 AM,46.0,32.0,58,30.16,7.0,East,3.5,-,N/A,,Clear,90,2012-09-20 11:53:00
6:53 AM,46.4,30.2,53,30.18,6.0,SW,4.6,-,N/A,,Smoke,230,2012-09-20 12:53:00
7:53 AM,46.9,30.9,54,30.19,4.0,WNW,3.5,-,N/A,,Smoke,290,2012-09-20 13:53:00
8:53 AM,54.0,30.9,41,30.19,4.0,NNW,4.6,-,N/A,,Smoke,330,2012-09-20 14:53:00
9:53 AM,57.0,33.1,40,30.21,5.0,Calm,Calm,-,N/A,,Smoke,0,2012-09-20 15:53:00
10:53 AM,63.0,32.0,31,30.21,5.0,Calm,Calm,-,N/A,,Smoke,0,2012-09-20 16:53:00
11:53 AM,66.0,30.9,27,30.18,5.0,Calm,Calm,-,N/A,,Smoke,0,2012-09-20 17:53:00
12:53 PM,71.1,28.9,21,30.14,6.0,East,4.6,-,N/A,,Smoke,90,2012-09-20 18:53:00
1:53 PM,75.9,28.9,18,30.12,5.0,Variable,3.5,-,N/A,,Smoke,0,2012-09-20 19:53:00
2:53 PM,80.1,30.0,16,30.08,5.0,NNE,6.9,-,N/A,,Smoke,30,2012-09-20 20:53:00
3:53 PM,81.0,28.9,15,30.08,6.0,Variable,4.6,-,N/A,,Smoke,0,2012-09-20 21:53:00
4:53 PM,81.0,28.9,15,30.06,6.0,Calm,Calm,-,N/A,,Smoke,0,2012-09-20 22:53:00
5:53 PM,80.1,32.0,17,30.07,6.0,NNE,5.8,-,N/A,,Smoke,30,2012-09-20 23:53:00
6:53 PM,79.0,28.9,16,30.07,6.0,Calm,Calm,-,N/A,,Smoke,0,2012-09-21 00:53:00
7:53 PM,71.1,34.0,26,30.10,7.0,Calm,Calm,-,N/A,,Smoke,0,2012-09-21 01:53:00
8:53 PM,66.9,30.0,25,30.11,8.0,WNW,4.6,-,N/A,,Smoke,300,2012-09-21 02:53:00
9:53 PM,62.1,30.0,30,30.13,8.0,WNW,5.8,-,N/A,,Smoke,290,2012-09-21 03:53:00
10:53 PM,64.0,30.9,29,30.12,8.0,WSW,4.6,-,N/A,,Smoke,240,2012-09-21 04:53:00
11:53 PM,59.0,30.9,35,30.14,10.0,North,3.5,-,N/A,,Clear,360,2012-09-21 05:53:00